Regional Weather Roundup
Issued by NWS Tampa Bay Area, FL

Home | Current Version | Previous Version | Text Only | Print | Product List | Glossary On
Versions: 1 2 3 4 5 6 7 8 9 10 11 12 13 14 15 16 17 18 19 20 21 22 23 24 25 26 27 28 29 30 31 32 33 34 35 36 37 38 39 40 41 42 43 44 45 46 47 48 49 50
328
NZUS99 KTBW 151618
RWRTPA
FLORIDA REGIONAL WEATHER ROUNDUP
NATIONAL WEATHER SERVICE TAMPA BAY RUSKIN FL
1200 PM EDT SUN SEP 15 2019

NOTE: "FAIR" INDICATES FEW OR NO CLOUDS BELOW 12,000 FEET WITH NO
SIGNIFICANT WEATHER AND/OR OBSTRUCTIONS TO VISIBILITY.



STATION/POSITION



FLZ042-048>051-055-056-060-061-151700-
EXTRA STATIONS

CITY           SKY/WX    TMP DP  RH WIND       PRES   REMARKS
Everglades Cty NOT AVBL
CRYSTAL RIVER  FAIR      86  73  66 NE9G17    29.98S HX  93
SEBRING        FAIR      87  76  69 N3        29.95S HX  97
EGLIN AFB      FAIR      88  68  52 E9        30.06S HX  91
CANAVERAL        N/A    N/A N/A N/A MISG        N/A

$$
FLZ001>010-012>015-151700-
PANHANDLE FLORIDA

CITY           SKY/WX    TMP DP  RH WIND       PRES   REMARKS
PENSACOLA      FAIR      85  74  69 VRB7      30.06S HX  92
PENSACOLA NAS  FAIR      83  73  72 E10       30.05F
MILTON NAS     FAIR      86  32  14 E9        30.07F
CRESTVIEW      FAIR      87  69  54 VRB3      30.08S HX  91
VALPARAISO     FAIR      87  68  52 NE9       30.05S HX  91
MARY ESTHER    PTSUNNY   86  71  59 NE6       30.03F HX  91
PANAMA CITY    FAIR      87  70  56 NE9       30.04S HX  92
TYNDALL AFB    FAIR      87  72  61 NE7       30.04S HX  93
APALACHICOLA   FAIR      86  72  62 E9        30.03S HX  92

STATION/POSITION


29.2N   88.2W
28.8N   86.0W
28.5N   84.5W

$$
FLZ011-016>039-151700-
NORTH FLORIDA

CITY           SKY/WX    TMP DP  RH WIND       PRES   REMARKS
MARIANNA       FAIR      88  70  55 NE13      30.05F HX  93
TALLAHASSEE    PTSUNNY   88  72  58 NE10      30.04F HX  94
PERRY          PTSUNNY   87  75  68 NE12      30.04F HX  96
CROSS CITY       N/A     85  75  73 NE13      30.01F HX  93
GAINESVILLE    PTSUNNY   85  73  67 NE12G22   30.01F HX  91
MAYPORT NAS    RAIN      83  77  82 NE22G33   30.00S HX  92
JACKSONVILLE   PTSUNNY   85  74  69 NE18G26   30.00F HX  92
JAX NAS        PTSUNNY   87  75  67 NE20G28   30.00S HX  96
JAX CRAIG      PTSUNNY   86  76  71 NE16G25   30.00S HX  96
ST AUGUSTINE   FAIR      84  32  15 NE18      29.99F

STATION/POSITION


KEATON BEACH
31.4N   80.9W
ST AUGUSTINE

$$
FLZ040-043>046-052-053-057-058-063-151700-
CENTRAL FLORIDA

CITY           SKY/WX    TMP DP  RH WIND       PRES   REMARKS
OCALA          PTSUNNY   86  75  70 NE10G16   29.98F HX  95
LEESBURG       FAIR      89  75  63 NE13      29.98S HX  99
SANFORD        PTSUNNY   86  74  67 NE12      29.95R HX  94
ORLANDO EXEC   LGT RAIN  85  75  72 N10       29.96R HX  93
ORLANDO INTL   PTSUNNY   88  75  65 NE16G22   29.94S HX  97
KISSIMMEE      FAIR      87  75  67 NE12G18   29.96S HX  96
WINTER HAVEN   FAIR      91  75  59 N9        29.97R HX 101
LAKELAND       PTSUNNY   88  75  66 NE5       29.97S HX  97
BARTOW         PTSUNNY   88  75  66 N9        29.95S HX  97

$$
FLZ041-047-054-059-064-151700-
EAST CENTRAL FLORIDA

CITY           SKY/WX    TMP DP  RH WIND       PRES   REMARKS
DAYTONA BEACH  LGT RAIN  86  76  71 N17G28    29.96S HX  96
JFK SPACE CTR  FAIR      85  59  41 N14G21    29.92S
TITUSVILLE     MOSUNNY   90  77  66 NE17G23   29.94R HX 102
PATRICK AFB    FAIR      85  80  83 N12G21    29.92R HX  99
MELBOURNE      FAIR      88  76  67 N16       29.92R HX  99
VERO BEACH     FAIR      88  74  63 N14       29.92S HX  96
FT PIERCE      PTSUNNY   86  75  69 W10       29.92R HX  95
STUART         MOSUNNY   86  75  70 NW8       29.93S HX  95

STATION/POSITION


28.9N   78.5W

$$
FLZ042-048>051-055-056-060-061-151700-
WEST CENTRAL FLORIDA

CITY           SKY/WX    TMP DP  RH WIND       PRES   REMARKS
BROOKSVILLE    PTSUNNY   88  75  65 NE10      29.98S HX  97
TAMPA          PTSUNNY   90  74  59 VRB6      29.97F HX  99
MACDILL AFB    FAIR      86  75  70 E5        29.96F HX  94
ST PETERSBURG  FAIR      86  76  71 VRB3      29.97S HX  96
ST PET-WHITTED FAIR      84  76  76 E3        29.96S HX  93
SARASOTA       FAIR      89  75  63 CALM      29.95S HX  99

STATION/POSITION


CEDAR KEY
28.5N   84.5W
VENICE

$$
FLZ062-065-066-069-070-075>078-151700-
SOUTHWEST FLORIDA AND KEYS

CITY           SKY/WX    TMP DP  RH WIND       PRES   REMARKS
PUNTA GORDA    FAIR      87  75  67 VRB3      29.98S HX  96
FT MYERS       FAIR      87  73  62 W5        29.95S HX  94
SOUTHWEST INTL FAIR      87  74  64 VRB3      29.96S HX  95
NAPLES         FAIR      88  75  65 CALM      29.96S HX  97
MARATHON       FAIR      87  78  74 SW10      29.97S HX 100
KEY WEST NAS   PTSUNNY   87  78  74 W10       29.98R HX 100
KEY WEST INTL  FAIR      87  79  76 SW10      29.98R HX 101

STATION/POSITION


VENICE
26.0N   85.6W
SOMBRERO KEY
LONG KEY

$$
FLZ067-068-071>074-151700-
SOUTHEAST FLORIDA

CITY           SKY/WX    TMP DP  RH WIND       PRES   REMARKS
W PALM BEACH   FAIR      88  76  67 W15       29.93R HX  99
POMPANO BEACH  FAIR      89  72  56 W8        29.93S HX  96
FT LAUDER-EXEC FAIR      89  74  60 SW12      29.93S HX  98
FT LAUDERDALE  PTSUNNY   87  74  64 W10       29.93S HX  95
PEMBROKE PINES FAIR      89  74  60 SW12      29.95F HX  98
OPA LOCKA      PTSUNNY   87  76  69 W9        29.95F HX  97
MIAMI          PTSUNNY   88  74  63 W6        29.95F HX  96
WEST KENDALL   FAIR      89  78  70 W10       29.95F HX 103
HOMESTEAD      CLOUDY    88  77  69 SW12      29.94F HX 101

STATION/POSITION


LAKE WORTH
FOWEY ROCKS
SETTLEMENT POINT

$$




USA.gov is the U.S. government's official web portal to all federal, state and local government web resources and services.